Home   Weather   Tomball   Past weeks
Flag for USA

Past Weather in Tomball, Texas, USA — Yesterday and Last 2 Weeks

Now
75 °F

Sunny.


Feels Like: 77 °F
Forecast: 80 / 51 °F
Wind: 8 mph from East

Location: Hooks Memorial Airport

Current Time: Oct 22, 2019 at 7:11:08 pm

Latest Report: Oct 22, 2019 at 5:53 pm


Visibility: 10 mi

Pressure: 30.12 "Hg

Humidity: 30%

Dew Point: 41 °F

Location of TomballLocation

Past Weather in Tomball — Graph

°F

Tomball Temperature Yesterday

Maximum temperature yesterday: 80 °F (at 12:53 am)
Minimum temperature yesterday: 60 °F (at 11:53 pm)
Average temperature yesterday: 72 °F

High & Low Weather Summary for the Past Weeks

 TemperatureHumidityPressure
High91 °F (Oct 10, 1:53 pm)97% (Oct 9, 3:13 am)30.22 "Hg (Oct 9, 3:13 am)
Low51 °F (Oct 11, 6:53 pm)21% (Oct 22, 1:53 pm)29.69 "Hg (Oct 19, 4:53 pm)
Average71 °F72%29.94 "Hg
* Reported Oct 7 5:53 pm — Oct 22 5:53 pm, Tomball. Weather by CustomWeather, © 2019

Note: Actual official high and low records may vary slightly from our data, if they occured in-between our weather recording intervals... More about our weather records

Advertising

Tomball Weather History for the Previous 24 Hours

Scroll right to see more
 ConditionsComfort  
Time TempWeatherWind HumidityBarometerVisibility
5:53 pm
Tue, Oct 22
75 °FSunny.8 mph30%30.12 "Hg10 mi
4:53 pm78 °FSunny.7 mph25%30.12 "Hg10 mi
3:53 pm78 °FSunny.7 mph23%30.14 "Hg10 mi
2:53 pm79 °FSunny.6 mph22%30.14 "Hg10 mi
1:53 pm78 °FSunny.6 mph21%30.17 "Hg10 mi
12:53 pm77 °FSunny.12 mph24%30.20 "Hg10 mi
11:53 am77 °FSunny.9 mph24%30.21 "Hg10 mi
10:53 am73 °FSunny.6 mph32%30.22 "Hg10 mi
9:53 am68 °FSunny.5 mph44%30.20 "Hg10 mi
8:53 am62 °FSunny.3 mph58%30.17 "Hg10 mi
7:53 am51 °FSunny.No wind77%30.14 "Hg10 mi
6:53 am56 °FClear.6 mph58%30.12 "Hg10 mi
5:53 am56 °FClear.5 mph60%30.11 "Hg10 mi
4:53 am52 °FClear.No wind72%30.09 "Hg10 mi
3:53 am54 °FClear.No wind69%30.08 "Hg10 mi
2:53 am57 °FClear.6 mph62%30.07 "Hg10 mi
1:53 am57 °FClear.No wind67%30.07 "Hg10 mi
12:53 am59 °FClear.3 mph64%30.05 "Hg10 mi
11:53 pm
Mon, Oct 21
60 °FClear.3 mph62%30.04 "Hg10 mi
10:53 pm63 °FClear.6 mph60%30.03 "Hg10 mi
9:53 pm63 °FClear.5 mph63%30.00 "Hg10 mi
8:53 pm64 °FClear.No wind63%29.97 "Hg10 mi
7:53 pm62 °FClear.3 mph73%29.93 "Hg10 mi
Weather by CustomWeather, © 2019

See weather overview